Time,TemperatureF,DewpointF,PressureIn,WindDirection,WindDirectionDegrees,WindSpeedMPH,WindSpeedGustMPH,Humidity,HourlyPrecipIn,Conditions,Clouds,dailyrainin,SoftwareType,DateUTC
2013-03-03 00:00:00,23.2,20.7,30.00,NNW,345,1.0,1.0,90,0.00,,,0.00,Wunderground v.1.15,2013-03-03 05:00:00,
2013-03-03 00:01:00,23.2,20.7,30.00,NNW,345,1.0,9.0,90,0.00,,,0.00,Wunderground v.1.15,2013-03-03 05:01:00,
2013-03-03 00:03:00,23.2,20.7,30.00,ENE,58,1.0,9.0,90,0.00,,,0.00,Wunderground v.1.15,2013-03-03 05:03:00,
2013-03-03 00:06:00,23.2,20.4,30.00,West,273,1.0,9.0,89,0.00,,,0.00,Wunderground v.1.15,2013-03-03 05:06:00,
2013-03-03 00:11:00,23.2,20.7,30.00,North,4,0.0,0.0,90,0.00,,,0.00,Wunderground v.1.15,2013-03-03 05:11:00,
2013-03-03 00:16:00,23.2,20.7,30.00,NNW,338,0.0,2.0,90,0.00,,,0.00,Wunderground v.1.15,2013-03-03 05:16:00,
2013-03-03 00:21:00,23.2,20.7,30.00,NNW,328,0.0,0.0,90,0.00,,,0.00,Wunderground v.1.15,2013-03-03 05:21:00,
2013-03-03 00:27:00,23.1,20.6,29.99,NE,50,1.0,2.0,90,0.00,,,0.00,Wunderground v.1.15,2013-03-03 05:27:00,
2013-03-03 00:32:00,23.1,20.6,29.99,NNW,338,1.0,2.0,90,0.00,,,0.00,Wunderground v.1.15,2013-03-03 05:32:00,
2013-03-03 00:38:00,23.0,20.2,29.99,NNE,30,1.0,3.0,89,0.00,,,0.00,Wunderground v.1.15,2013-03-03 05:38:00,
2013-03-03 00:43:00,22.9,20.1,29.99,NNW,347,1.0,3.0,89,0.00,,,0.00,Wunderground v.1.15,2013-03-03 05:43:00,
2013-03-03 00:49:00,22.8,20.0,29.99,NNE,15,1.0,3.0,89,0.00,,,0.00,Wunderground v.1.15,2013-03-03 05:49:00,
2013-03-03 00:54:00,22.8,20.0,29.99,NW,326,1.0,2.0,89,0.00,,,0.00,Wunderground v.1.15,2013-03-03 05:54:00,
2013-03-03 00:59:00,22.7,19.9,29.99,NW,326,1.0,2.0,89,0.00,,,0.00,Wunderground v.1.15,2013-03-03 05:59:00,
2013-03-03 01:05:00,22.7,19.9,29.99,NW,315,1.0,4.0,89,0.00,,,0.00,Wunderground v.1.15,2013-03-03 06:05:00,
2013-03-03 01:10:00,22.6,20.1,29.99,WNW,295,1.0,1.0,90,0.00,,,0.00,Wunderground v.1.15,2013-03-03 06:10:00,
2013-03-03 01:15:00,22.6,20.1,29.99,NNW,329,0.0,1.0,90,0.00,,,0.00,Wunderground v.1.15,2013-03-03 06:15:00,
2013-03-03 01:21:00,22.6,20.1,29.99,North,6,0.0,3.0,90,0.00,,,0.00,Wunderground v.1.15,2013-03-03 06:21:00,
2013-03-03 01:27:00,22.6,19.8,29.99,North,9,1.0,3.0,89,0.00,,,0.00,Wunderground v.1.15,2013-03-03 06:27:00,
2013-03-03 01:32:00,22.6,19.8,29.99,NNE,20,1.0,1.0,89,0.00,,,0.00,Wunderground v.1.15,2013-03-03 06:32:00,
2013-03-03 01:37:00,22.5,19.7,29.99,North,360,1.0,1.0,89,0.00,,,0.00,Wunderground v.1.15,2013-03-03 06:37:00,
2013-03-03 01:43:00,22.5,19.7,29.99,NNW,330,1.0,2.0,89,0.00,,,0.00,Wunderground v.1.15,2013-03-03 06:43:00,
2013-03-03 01:49:00,22.4,19.6,29.99,NE,53,1.0,4.0,89,0.00,,,0.00,Wunderground v.1.15,2013-03-03 06:49:00,
2013-03-03 01:55:00,22.4,19.6,29.99,NNE,29,1.0,1.0,89,0.00,,,0.00,Wunderground v.1.15,2013-03-03 06:55:00,
2013-03-03 02:00:00,22.3,19.6,29.99,WNW,298,1.0,1.0,89,0.00,,,0.00,Wunderground v.1.15,2013-03-03 07:00:00,
2013-03-03 02:06:00,22.3,19.3,29.98,NNE,21,1.0,6.0,88,0.00,,,0.00,Wunderground v.1.15,2013-03-03 07:06:00,
2013-03-03 02:11:00,22.3,19.3,29.98,NW,326,1.0,2.0,88,0.00,,,0.00,Wunderground v.1.15,2013-03-03 07:11:00,
2013-03-03 02:16:00,22.3,19.3,29.98,NNW,346,1.0,2.0,88,0.00,,,0.00,Wunderground v.1.15,2013-03-03 07:16:00,
2013-03-03 02:21:00,22.3,19.6,29.98,North,1,1.0,1.0,89,0.00,,,0.00,Wunderground v.1.15,2013-03-03 07:21:00,
2013-03-03 02:26:00,22.3,19.3,29.98,NNE,15,1.0,2.0,88,0.00,,,0.00,Wunderground v.1.15,2013-03-03 07:26:00,
2013-03-03 02:31:00,22.3,19.3,29.98,NE,36,1.0,2.0,88,0.00,,,0.00,Wunderground v.1.15,2013-03-03 07:31:00,
2013-03-03 02:37:00,22.4,19.6,29.97,NNW,338,1.0,3.0,89,0.00,,,0.00,Wunderground v.1.15,2013-03-03 07:37:00,
2013-03-03 02:42:00,22.3,19.6,29.97,NE,34,1.0,4.0,89,0.00,,,0.00,Wunderground v.1.15,2013-03-03 07:42:00,
2013-03-03 02:47:00,22.3,19.6,29.97,NNW,340,1.0,4.0,89,0.00,,,0.00,Wunderground v.1.15,2013-03-03 07:47:00,
2013-03-03 02:53:00,22.3,19.6,29.97,North,352,1.0,1.0,89,0.00,,,0.00,Wunderground v.1.15,2013-03-03 07:53:00,
2013-03-03 02:59:00,22.2,19.5,29.97,NNE,30,1.0,3.0,89,0.00,,,0.00,Wunderground v.1.15,2013-03-03 07:59:00,
2013-03-03 03:05:00,22.3,19.6,29.97,North,352,1.0,6.0,89,0.00,,,0.00,Wunderground v.1.15,2013-03-03 08:05:00,
2013-03-03 03:11:00,22.3,19.6,29.97,North,352,1.0,2.0,89,0.00,,,0.00,Wunderground v.1.15,2013-03-03 08:11:00,
2013-03-03 03:16:00,22.3,19.6,29.97,West,273,1.0,2.0,89,0.00,,,0.00,Wunderground v.1.15,2013-03-03 08:16:00,
2013-03-03 03:21:00,22.3,19.6,29.97,NNW,327,1.0,2.0,89,0.00,,,0.00,Wunderground v.1.15,2013-03-03 08:21:00,
2013-03-03 03:26:00,22.3,19.6,29.97,NW,316,1.0,3.0,89,0.00,,,0.00,Wunderground v.1.15,2013-03-03 08:26:00,
2013-03-03 03:32:00,22.3,19.6,29.97,NNE,16,1.0,1.0,89,0.00,,,0.00,Wunderground v.1.15,2013-03-03 08:32:00,
2013-03-03 03:38:00,22.2,19.5,29.97,NNE,27,1.0,2.0,89,0.00,,,0.00,Wunderground v.1.15,2013-03-03 08:38:00,
2013-03-03 03:43:00,22.2,19.5,29.97,NW,305,0.0,1.0,89,0.00,,,0.00,Wunderground v.1.15,2013-03-03 08:43:00,
2013-03-03 03:49:00,22.2,19.5,29.97,NNE,15,0.0,3.0,89,0.00,,,0.00,Wunderground v.1.15,2013-03-03 08:49:00,
2013-03-03 03:54:00,22.2,19.5,29.97,North,350,1.0,2.0,89,0.00,,,0.00,Wunderground v.1.15,2013-03-03 08:54:00,
2013-03-03 03:59:00,22.2,19.5,29.97,NW,320,1.0,2.0,89,0.00,,,0.00,Wunderground v.1.15,2013-03-03 08:59:00,
2013-03-03 04:05:00,22.3,19.6,29.97,NNE,29,2.0,4.0,89,0.00,,,0.00,Wunderground v.1.15,2013-03-03 09:05:00,
2013-03-03 04:10:00,22.3,19.3,29.97,North,352,2.0,2.0,88,0.00,,,0.00,Wunderground v.1.15,2013-03-03 09:10:00,
2013-03-03 04:15:00,22.3,19.3,29.97,North,352,1.0,3.0,88,0.00,,,0.00,Wunderground v.1.15,2013-03-03 09:15:00,
2013-03-03 04:21:00,22.3,19.3,29.97,NNW,343,1.0,1.0,88,0.00,,,0.00,Wunderground v.1.15,2013-03-03 09:21:00,
2013-03-03 04:26:00,22.3,19.3,29.97,North,3,0.0,1.0,88,0.00,,,0.00,Wunderground v.1.15,2013-03-03 09:26:00,
2013-03-03 04:31:00,22.3,19.6,29.98,North,354,1.0,1.0,89,0.00,,,0.00,Wunderground v.1.15,2013-03-03 09:31:00,
2013-03-03 04:37:00,22.3,19.3,29.98,NNE,16,1.0,3.0,88,0.00,,,0.00,Wunderground v.1.15,2013-03-03 09:37:00,
2013-03-03 04:43:00,22.2,19.2,29.98,NW,315,1.0,2.0,88,0.00,,,0.00,Wunderground v.1.15,2013-03-03 09:43:00,
2013-03-03 04:49:00,22.2,19.5,29.98,North,1,1.0,2.0,89,0.00,,,0.00,Wunderground v.1.15,2013-03-03 09:49:00,
2013-03-03 04:55:00,22.1,19.4,29.98,NNE,20,1.0,3.0,89,0.00,,,0.00,Wunderground v.1.15,2013-03-03 09:55:00,
2013-03-03 05:00:00,22.1,19.1,29.98,NW,319,1.0,1.0,88,0.00,,,0.00,Wunderground v.1.15,2013-03-03 10:00:00,
2013-03-03 05:06:00,22.1,19.4,29.98,NNE,25,1.0,4.0,89,0.00,,,0.00,Wunderground v.1.15,2013-03-03 10:06:00,
2013-03-03 05:11:00,22.0,19.3,29.98,North,356,2.0,3.0,89,0.00,,,0.00,Wunderground v.1.15,2013-03-03 10:11:00,
2013-03-03 05:16:00,22.0,19.3,29.98,NNE,33,2.0,3.0,89,0.00,,,0.00,Wunderground v.1.15,2013-03-03 10:16:00,
2013-03-03 05:22:00,22.0,19.5,29.98,NNW,344,1.0,3.0,90,0.00,,,0.00,Wunderground v.1.15,2013-03-03 10:22:00,
2013-03-03 05:27:00,22.0,19.5,29.98,WSW,239,1.0,3.0,90,0.00,,,0.00,Wunderground v.1.15,2013-03-03 10:27:00,
2013-03-03 05:33:00,22.0,19.5,29.98,NNE,30,1.0,2.0,90,0.00,,,0.00,Wunderground v.1.15,2013-03-03 10:33:00,
2013-03-03 05:39:00,22.0,19.5,29.98,NNW,342,1.0,3.0,90,0.00,,,0.00,Wunderground v.1.15,2013-03-03 10:39:00,
2013-03-03 05:44:00,21.9,19.4,29.98,North,356,2.0,3.0,90,0.00,,,0.00,Wunderground v.1.15,2013-03-03 10:44:00,
2013-03-03 05:49:00,21.9,19.4,29.98,North,11,1.0,3.0,90,0.00,,,0.00,Wunderground v.1.15,2013-03-03 10:49:00,
2013-03-03 05:55:00,21.9,19.2,29.98,NE,36,1.0,3.0,89,0.00,,,0.00,Wunderground v.1.15,2013-03-03 10:55:00,
2013-03-03 06:00:00,21.9,19.4,29.98,North,352,1.0,1.0,90,0.00,,,0.00,Wunderground v.1.15,2013-03-03 11:00:00,
2013-03-03 06:05:00,21.8,19.3,29.98,North,358,1.0,6.0,90,0.00,,,0.00,Wunderground v.1.15,2013-03-03 11:05:00,
2013-03-03 06:10:00,21.8,19.3,29.98,NNW,334,1.0,1.0,90,0.00,,,0.00,Wunderground v.1.15,2013-03-03 11:10:00,
2013-03-03 06:15:00,21.8,19.3,29.98,NNW,347,2.0,3.0,90,0.00,,,0.00,Wunderground v.1.15,2013-03-03 11:15:00,
2013-03-03 06:21:00,21.8,19.3,29.98,NNE,18,2.0,2.0,90,0.00,,,0.00,Wunderground v.1.15,2013-03-03 11:21:00,
2013-03-03 06:26:00,21.8,19.3,29.98,NNW,336,1.0,2.0,90,0.00,,,0.00,Wunderground v.1.15,2013-03-03 11:26:00,
2013-03-03 06:31:00,21.7,19.2,29.98,West,271,1.0,1.0,90,0.00,,,0.00,Wunderground v.1.15,2013-03-03 11:31:00,
2013-03-03 06:36:00,21.8,19.3,29.98,NNE,17,2.0,3.0,90,0.00,,,0.00,Wunderground v.1.15,2013-03-03 11:36:00,
2013-03-03 06:41:00,21.9,19.4,29.98,NW,323,1.0,1.0,90,0.00,,,0.00,Wunderground v.1.15,2013-03-03 11:41:00,
2013-03-03 06:47:00,22.0,19.5,29.98,West,274,0.0,6.0,90,0.00,,,0.00,Wunderground v.1.15,2013-03-03 11:47:00,
2013-03-03 06:52:00,22.0,19.5,29.99,North,1,1.0,2.0,90,0.00,,,0.00,Wunderground v.1.15,2013-03-03 11:52:00,
2013-03-03 06:57:00,22.0,19.5,29.98,NW,305,1.0,3.0,90,0.00,,,0.00,Wunderground v.1.15,2013-03-03 11:57:00,
2013-03-03 07:03:00,22.2,20.0,29.99,West,278,1.0,5.0,91,0.00,,,0.00,Wunderground v.1.15,2013-03-03 12:03:00,
2013-03-03 07:09:00,22.3,19.8,29.98,NW,305,0.0,5.0,90,0.00,,,0.00,Wunderground v.1.15,2013-03-03 12:09:00,
2013-03-03 07:14:00,22.4,19.9,29.98,ENE,70,0.0,3.0,90,0.00,,,0.00,Wunderground v.1.15,2013-03-03 12:14:00,
2013-03-03 07:19:00,22.5,20.0,29.99,NNE,12,0.0,3.0,90,0.00,,,0.00,Wunderground v.1.15,2013-03-03 12:19:00,
2013-03-03 07:24:00,22.7,19.9,29.99,NE,41,0.0,2.0,89,0.00,,,0.00,Wunderground v.1.15,2013-03-03 12:24:00,
2013-03-03 07:29:00,22.9,19.9,29.99,NNE,30,1.0,3.0,88,0.00,,,0.00,Wunderground v.1.15,2013-03-03 12:29:00,
2013-03-03 07:35:00,23.2,20.2,29.99,North,353,2.0,2.0,88,0.00,,,0.00,Wunderground v.1.15,2013-03-03 12:35:00,
2013-03-03 07:40:00,23.4,20.1,29.99,West,261,2.0,2.0,87,0.00,,,0.00,Wunderground v.1.15,2013-03-03 12:40:00,
2013-03-03 07:45:00,23.7,20.4,29.99,NNE,30,2.0,3.0,87,0.00,,,0.00,Wunderground v.1.15,2013-03-03 12:45:00,
2013-03-03 07:50:00,24.3,20.7,29.98,NNE,23,2.0,3.0,86,0.00,,,0.00,Wunderground v.1.15,2013-03-03 12:50:00,
2013-03-03 07:55:00,24.8,20.9,29.98,WNW,301,2.0,3.0,85,0.00,,,0.00,Wunderground v.1.15,2013-03-03 12:55:00,
2013-03-03 08:00:00,24.9,20.8,29.98,NE,46,2.0,2.0,84,0.00,,,0.00,Wunderground v.1.15,2013-03-03 13:00:00,
2013-03-03 08:06:00,25.0,20.8,29.98,NNE,16,2.0,6.0,84,0.00,,,0.00,Wunderground v.1.15,2013-03-03 13:06:00,
2013-03-03 08:11:00,24.8,20.9,29.98,NNE,21,2.0,2.0,85,0.00,,,0.00,Wunderground v.1.15,2013-03-03 13:11:00,
2013-03-03 08:16:00,24.7,20.8,29.98,WNW,291,3.0,5.0,85,0.00,,,0.00,Wunderground v.1.15,2013-03-03 13:16:00,
2013-03-03 08:21:00,24.7,21.1,29.98,NE,49,2.0,4.0,86,0.00,,,0.00,Wunderground v.1.15,2013-03-03 13:21:00,
2013-03-03 08:26:00,24.7,20.6,29.98,North,9,2.0,4.0,84,0.00,,,0.00,Wunderground v.1.15,2013-03-03 13:26:00,
2013-03-03 08:32:00,24.7,21.1,29.98,NE,44,2.0,2.0,86,0.00,,,0.00,Wunderground v.1.15,2013-03-03 13:32:00,
2013-03-03 08:37:00,25.0,21.4,29.98,ENE,63,1.0,2.0,86,0.00,,,0.00,Wunderground v.1.15,2013-03-03 13:37:00,
2013-03-03 08:42:00,25.3,21.4,29.98,NE,38,0.0,3.0,85,0.00,,,0.00,Wunderground v.1.15,2013-03-03 13:42:00,
2013-03-03 08:48:00,25.2,21.3,29.98,North,355,1.0,4.0,85,0.00,,,0.00,Wunderground v.1.15,2013-03-03 13:48:00,
2013-03-03 08:53:00,25.3,21.1,29.98,WSW,246,2.0,3.0,84,0.00,,,0.00,Wunderground v.1.15,2013-03-03 13:53:00,
2013-03-03 08:59:00,25.4,21.2,29.98,WSW,239,1.0,3.0,84,0.00,,,0.00,Wunderground v.1.15,2013-03-03 13:59:00,
2013-03-03 09:04:00,25.5,21.3,29.98,North,359,1.0,6.0,84,0.00,,,0.00,Wunderground v.1.15,2013-03-03 14:04:00,
2013-03-03 09:09:00,25.7,21.5,29.98,NW,318,1.0,6.0,84,0.00,,,0.00,Wunderground v.1.15,2013-03-03 14:09:00,
2013-03-03 09:14:00,26.1,22.2,29.98,WNW,298,1.0,2.0,85,0.00,,,0.00,Wunderground v.1.15,2013-03-03 14:14:00,
2013-03-03 09:19:00,26.8,22.9,29.98,WNW,295,0.0,2.0,85,0.00,,,0.00,Wunderground v.1.15,2013-03-03 14:19:00,
2013-03-03 09:25:00,27.1,22.6,29.97,West,266,0.0,3.0,83,0.00,,,0.00,Wunderground v.1.15,2013-03-03 14:25:00,
2013-03-03 09:30:00,27.4,22.6,29.97,NNE,25,0.0,0.0,82,0.00,,,0.00,Wunderground v.1.15,2013-03-03 14:30:00,
2013-03-03 09:35:00,27.5,22.7,29.97,NNW,341,1.0,2.0,82,0.00,,,0.00,Wunderground v.1.15,2013-03-03 14:35:00,
2013-03-03 09:41:00,27.3,22.5,29.97,NNW,344,1.0,2.0,82,0.00,,,0.00,Wunderground v.1.15,2013-03-03 14:41:00,
2013-03-03 09:46:00,27.4,22.6,29.97,NE,43,1.0,3.0,82,0.00,,,0.00,Wunderground v.1.15,2013-03-03 14:46:00,
2013-03-03 09:51:00,27.4,22.3,29.97,North,10,2.0,2.0,81,0.00,,,0.00,Wunderground v.1.15,2013-03-03 14:51:00,
2013-03-03 09:57:00,27.3,22.5,29.97,North,356,2.0,4.0,82,0.00,,,0.00,Wunderground v.1.15,2013-03-03 14:57:00,
2013-03-03 10:03:00,27.5,22.7,29.96,NE,39,2.0,6.0,82,0.00,,,0.00,Wunderground v.1.15,2013-03-03 15:03:00,
2013-03-03 10:09:00,27.8,23.0,29.96,North,350,1.0,6.0,82,0.00,,,0.00,Wunderground v.1.15,2013-03-03 15:09:00,
2013-03-03 10:14:00,27.9,22.8,29.96,NNE,16,1.0,5.0,81,0.00,,,0.00,Wunderground v.1.15,2013-03-03 15:14:00,
2013-03-03 10:19:00,27.7,22.6,29.96,North,356,2.0,5.0,81,0.00,,,0.00,Wunderground v.1.15,2013-03-03 15:19:00,
2013-03-03 10:25:00,27.9,22.8,29.96,NNW,334,2.0,4.0,81,0.00,,,0.00,Wunderground v.1.15,2013-03-03 15:25:00,
2013-03-03 10:30:00,27.8,22.7,29.96,WNW,286,2.0,2.0,81,0.00,,,0.00,Wunderground v.1.15,2013-03-03 15:30:00,
2013-03-03 10:35:00,28.0,23.2,29.96,NNE,28,2.0,3.0,82,0.00,,,0.00,Wunderground v.1.15,2013-03-03 15:35:00,
2013-03-03 10:40:00,28.0,23.2,29.96,NNW,347,2.0,2.0,82,0.00,,,0.00,Wunderground v.1.15,2013-03-03 15:40:00,
2013-03-03 10:45:00,28.3,23.5,29.95,North,354,2.0,2.0,82,0.00,,,0.00,Wunderground v.1.15,2013-03-03 15:45:00,
2013-03-03 10:50:00,28.6,23.5,29.95,WNW,291,1.0,1.0,81,0.00,,,0.00,Wunderground v.1.15,2013-03-03 15:50:00,
2013-03-03 10:56:00,28.9,23.8,29.95,SSW,200,2.0,7.0,81,0.00,,,0.00,Wunderground v.1.15,2013-03-03 15:56:00,
2013-03-03 11:01:00,28.9,23.8,29.95,North,6,2.0,6.0,81,0.00,,,0.00,Wunderground v.1.15,2013-03-03 16:01:00,
2013-03-03 11:06:00,28.9,23.5,29.95,NNW,338,3.0,6.0,80,0.00,,,0.00,Wunderground v.1.15,2013-03-03 16:06:00,
2013-03-03 11:11:00,29.1,24.0,29.95,North,1,3.0,4.0,81,0.00,,,0.00,Wunderground v.1.15,2013-03-03 16:11:00,
2013-03-03 11:17:00,29.5,24.4,29.95,North,6,2.0,4.0,81,0.00,,,0.00,Wunderground v.1.15,2013-03-03 16:17:00,
2013-03-03 11:22:00,29.6,24.2,29.95,North,9,3.0,7.0,80,0.00,,,0.00,Wunderground v.1.15,2013-03-03 16:22:00,
2013-03-03 11:28:00,29.9,24.2,29.95,NNW,343,3.0,7.0,79,0.00,,,0.00,Wunderground v.1.15,2013-03-03 16:28:00,
2013-03-03 11:33:00,29.9,24.5,29.95,NNW,343,3.0,3.0,80,0.00,,,0.00,Wunderground v.1.15,2013-03-03 16:33:00,
2013-03-03 11:39:00,29.7,24.0,29.95,NE,36,4.0,11.0,79,0.00,,,0.00,Wunderground v.1.15,2013-03-03 16:39:00,
2013-03-03 11:44:00,29.7,24.0,29.94,North,4,4.0,10.0,79,0.00,,,0.00,Wunderground v.1.15,2013-03-03 16:44:00,
2013-03-03 11:50:00,29.7,24.0,29.94,North,9,4.0,4.0,79,0.00,,,0.00,Wunderground v.1.15,2013-03-03 16:50:00,
2013-03-03 11:55:00,29.9,24.5,29.94,NW,309,3.0,6.0,80,0.00,,,0.00,Wunderground v.1.15,2013-03-03 16:55:00,
2013-03-03 12:00:00,30.0,24.6,29.94,NNE,13,3.0,9.0,80,0.00,,,0.00,Wunderground v.1.15,2013-03-03 17:00:00,
2013-03-03 12:06:00,30.0,24.3,29.94,NW,314,4.0,9.0,79,0.00,,,0.00,Wunderground v.1.15,2013-03-03 17:06:00,
2013-03-03 12:11:00,30.0,24.6,29.94,North,352,5.0,7.0,80,0.00,,,0.00,Wunderground v.1.15,2013-03-03 17:11:00,
2013-03-03 12:17:00,30.3,24.9,29.94,NNE,33,4.0,7.0,80,0.00,,,0.00,Wunderground v.1.15,2013-03-03 17:17:00,
2013-03-03 12:22:00,30.4,24.7,29.93,SSE,159,4.0,5.0,79,0.00,,,0.00,Wunderground v.1.15,2013-03-03 17:22:00,
2013-03-03 12:27:00,30.4,24.7,29.93,North,350,4.0,5.0,79,0.00,,,0.00,Wunderground v.1.15,2013-03-03 17:27:00,
2013-03-03 12:32:00,30.4,25.0,29.93,NNW,348,4.0,6.0,80,0.00,,,0.00,Wunderground v.1.15,2013-03-03 17:32:00,
2013-03-03 12:37:00,30.5,25.1,29.93,ENE,75,3.0,8.0,80,0.00,,,0.00,Wunderground v.1.15,2013-03-03 17:37:00,
2013-03-03 12:42:00,30.4,25.0,29.93,North,9,3.0,4.0,80,0.00,,,0.00,Wunderground v.1.15,2013-03-03 17:42:00,
2013-03-03 12:48:00,30.4,25.0,29.92,NNW,335,3.0,5.0,80,0.00,,,0.00,Wunderground v.1.15,2013-03-03 17:48:00,
2013-03-03 12:53:00,30.3,24.9,29.92,NNE,24,3.0,6.0,80,0.00,,,0.00,Wunderground v.1.15,2013-03-03 17:53:00,
2013-03-03 12:59:00,30.1,25.0,29.92,NNE,25,4.0,7.0,81,0.00,,,0.00,Wunderground v.1.15,2013-03-03 17:59:00,
2013-03-03 13:04:00,30.0,24.9,29.92,North,352,4.0,12.0,81,0.00,,,0.00,Wunderground v.1.15,2013-03-03 18:04:00,
2013-03-03 13:09:00,30.0,24.9,29.92,NE,37,4.0,12.0,81,0.00,,,0.00,Wunderground v.1.15,2013-03-03 18:09:00,
2013-03-03 13:15:00,30.0,25.2,29.92,NNE,32,3.0,4.0,82,0.00,,,0.00,Wunderground v.1.15,2013-03-03 18:15:00,
2013-03-03 13:21:00,30.0,25.2,29.92,North,356,3.0,3.0,82,0.00,,,0.00,Wunderground v.1.15,2013-03-03 18:21:00,
2013-03-03 13:26:00,30.0,25.5,29.92,North,1,3.0,5.0,83,0.00,,,0.00,Wunderground v.1.15,2013-03-03 18:26:00,
2013-03-03 13:31:00,30.0,25.2,29.92,NNW,346,3.0,6.0,82,0.00,,,0.00,Wunderground v.1.15,2013-03-03 18:31:00,
2013-03-03 13:37:00,30.1,25.3,29.92,NNE,24,3.0,6.0,82,0.00,,,0.00,Wunderground v.1.15,2013-03-03 18:37:00,
2013-03-03 13:42:00,30.1,25.3,29.92,NNE,23,3.0,5.0,82,0.00,,,0.00,Wunderground v.1.15,2013-03-03 18:42:00,
2013-03-03 13:48:00,29.9,25.1,29.92,NNE,23,4.0,6.0,82,0.00,,,0.00,Wunderground v.1.15,2013-03-03 18:48:00,
2013-03-03 13:53:00,29.9,25.1,29.92,NE,37,4.0,5.0,82,0.00,,,0.00,Wunderground v.1.15,2013-03-03 18:53:00,
2013-03-03 13:59:00,29.9,25.1,29.92,NNE,32,3.0,5.0,82,0.00,,,0.00,Wunderground v.1.15,2013-03-03 18:59:00,
2013-03-03 14:04:00,30.0,25.2,29.92,NE,36,3.0,14.0,82,0.00,,,0.00,Wunderground v.1.15,2013-03-03 19:04:00,
2013-03-03 14:09:00,30.0,25.5,29.92,NNW,333,3.0,14.0,83,0.00,,,0.00,Wunderground v.1.15,2013-03-03 19:09:00,
2013-03-03 14:15:00,29.9,24.8,29.92,NNE,20,3.0,5.0,81,0.00,,,0.00,Wunderground v.1.15,2013-03-03 19:15:00,
2013-03-03 14:20:00,29.8,25.0,29.92,North,360,3.0,3.0,82,0.00,,,0.00,Wunderground v.1.15,2013-03-03 19:20:00,
2013-03-03 14:25:00,29.9,24.8,29.92,NNE,25,3.0,4.0,81,0.00,,,0.00,Wunderground v.1.15,2013-03-03 19:25:00,
2013-03-03 14:31:00,29.8,25.0,29.92,ENE,60,3.0,4.0,82,0.00,,,0.00,Wunderground v.1.15,2013-03-03 19:31:00,
2013-03-03 14:36:00,29.8,25.3,29.92,NE,34,3.0,5.0,83,0.00,,,0.00,Wunderground v.1.15,2013-03-03 19:36:00,
2013-03-03 14:41:00,29.7,25.2,29.92,WNW,303,3.0,3.0,83,0.00,,,0.00,Wunderground v.1.15,2013-03-03 19:41:00,
2013-03-03 14:47:00,29.7,25.2,29.92,NNW,341,2.0,3.0,83,0.00,,,0.00,Wunderground v.1.15,2013-03-03 19:47:00,
2013-03-03 14:53:00,29.5,25.3,29.92,NNE,30,2.0,7.0,84,0.00,,,0.00,Wunderground v.1.15,2013-03-03 19:53:00,
2013-03-03 14:59:00,29.2,25.0,29.92,NNE,20,3.0,7.0,84,0.00,,,0.00,Wunderground v.1.15,2013-03-03 19:59:00,
2013-03-03 15:04:00,29.2,25.3,29.92,NE,38,3.0,9.0,85,0.00,,,0.00,Wunderground v.1.15,2013-03-03 20:04:00,
2013-03-03 15:10:00,29.2,25.3,29.92,NW,308,1.0,1.0,85,0.00,,,0.00,Wunderground v.1.15,2013-03-03 20:10:00,
2013-03-03 15:16:00,29.1,25.2,29.92,NNE,12,1.0,6.0,85,0.00,,,0.00,Wunderground v.1.15,2013-03-03 20:16:00,
2013-03-03 15:21:00,28.8,24.3,29.92,South,191,1.0,1.0,83,0.00,,,0.00,Wunderground v.1.15,2013-03-03 20:21:00,
2013-03-03 15:26:00,28.8,24.6,29.92,West,277,1.0,1.0,84,0.00,,,0.00,Wunderground v.1.15,2013-03-03 20:26:00,
2013-03-03 15:32:00,28.7,24.5,29.92,WNW,283,1.0,1.0,84,0.00,,,0.00,Wunderground v.1.15,2013-03-03 20:32:00,
2013-03-03 15:38:00,28.7,24.5,29.93,NW,309,0.0,1.0,84,0.00,,,0.00,Wunderground v.1.15,2013-03-03 20:38:00,
2013-03-03 15:43:00,28.6,24.4,29.93,WSW,249,1.0,3.0,84,0.00,,,0.00,Wunderground v.1.15,2013-03-03 20:43:00,
2013-03-03 15:49:00,28.5,24.0,29.93,WNW,285,1.0,3.0,83,0.00,,,0.00,Wunderground v.1.15,2013-03-03 20:49:00,
2013-03-03 15:54:00,28.5,24.0,29.93,West,278,1.0,2.0,83,0.00,,,0.00,Wunderground v.1.15,2013-03-03 20:54:00,
2013-03-03 16:00:00,28.3,23.8,29.93,North,355,2.0,4.0,83,0.00,,,0.00,Wunderground v.1.15,2013-03-03 21:00:00,
2013-03-03 16:05:00,28.1,23.6,29.93,ENE,57,3.0,9.0,83,0.00,,,0.00,Wunderground v.1.15,2013-03-03 21:05:00,
2013-03-03 16:10:00,28.1,23.6,29.93,NNE,28,4.0,4.0,83,0.00,,,0.00,Wunderground v.1.15,2013-03-03 21:10:00,
2013-03-03 16:15:00,28.0,23.5,29.93,NE,39,4.0,8.0,83,0.00,,,0.00,Wunderground v.1.15,2013-03-03 21:15:00,
2013-03-03 16:20:00,27.9,23.4,29.93,NNW,338,3.0,3.0,83,0.00,,,0.00,Wunderground v.1.15,2013-03-03 21:20:00,
2013-03-03 16:26:00,27.8,23.3,29.93,NNE,27,4.0,8.0,83,0.00,,,0.00,Wunderground v.1.15,2013-03-03 21:26:00,
2013-03-03 16:31:00,27.7,23.2,29.93,ENE,63,5.0,6.0,83,0.00,,,0.00,Wunderground v.1.15,2013-03-03 21:31:00,
2013-03-03 16:36:00,27.7,23.2,29.93,NNW,333,4.0,6.0,83,0.00,,,0.00,Wunderground v.1.15,2013-03-03 21:36:00,
2013-03-03 16:41:00,27.6,23.1,29.93,NE,40,4.0,8.0,83,0.00,,,0.00,Wunderground v.1.15,2013-03-03 21:41:00,
2013-03-03 16:46:00,27.5,23.0,29.93,NNE,26,4.0,8.0,83,0.00,,,0.00,Wunderground v.1.15,2013-03-03 21:46:00,
2013-03-03 16:51:00,27.5,23.3,29.93,NNE,32,3.0,4.0,84,0.00,,,0.00,Wunderground v.1.15,2013-03-03 21:51:00,
2013-03-03 16:57:00,27.4,23.2,29.93,West,270,3.0,5.0,84,0.00,,,0.00,Wunderground v.1.15,2013-03-03 21:57:00,
2013-03-03 17:02:00,27.3,23.1,29.93,NNE,26,3.0,9.0,84,0.00,,,0.00,Wunderground v.1.15,2013-03-03 22:02:00,
2013-03-03 17:07:00,27.1,22.9,29.93,NNW,336,4.0,9.0,84,0.00,,,0.00,Wunderground v.1.15,2013-03-03 22:07:00,
2013-03-03 17:13:00,27.0,23.1,29.94,NE,40,4.0,5.0,85,0.00,,,0.00,Wunderground v.1.15,2013-03-03 22:13:00,
2013-03-03 17:19:00,27.0,23.1,29.94,NNW,342,3.0,5.0,85,0.00,,,0.00,Wunderground v.1.15,2013-03-03 22:19:00,
2013-03-03 17:24:00,26.9,23.0,29.94,North,349,3.0,3.0,85,0.00,,,0.00,Wunderground v.1.15,2013-03-03 22:24:00,
2013-03-03 17:29:00,26.8,22.9,29.95,NNE,22,3.0,4.0,85,0.00,,,0.00,Wunderground v.1.15,2013-03-03 22:29:00,
2013-03-03 17:34:00,26.7,22.8,29.94,NNE,20,3.0,6.0,85,0.00,,,0.00,Wunderground v.1.15,2013-03-03 22:34:00,
2013-03-03 17:39:00,26.6,22.7,29.95,North,11,3.0,6.0,85,0.00,,,0.00,Wunderground v.1.15,2013-03-03 22:39:00,
2013-03-03 17:44:00,26.5,22.6,29.95,NNW,332,2.0,3.0,85,0.00,,,0.00,Wunderground v.1.15,2013-03-03 22:44:00,
2013-03-03 17:49:00,26.5,22.9,29.95,NNE,30,2.0,3.0,86,0.00,,,0.00,Wunderground v.1.15,2013-03-03 22:49:00,
2013-03-03 17:55:00,26.4,22.5,29.95,NNE,18,2.0,4.0,85,0.00,,,0.00,Wunderground v.1.15,2013-03-03 22:55:00,
2013-03-03 18:00:00,26.4,22.5,29.95,North,354,2.0,2.0,85,0.00,,,0.00,Wunderground v.1.15,2013-03-03 23:00:00,
2013-03-03 18:05:00,26.3,22.7,29.95,NNE,20,1.0,11.0,86,0.00,,,0.00,Wunderground v.1.15,2013-03-03 23:05:00,
2013-03-03 18:10:00,26.3,22.7,29.96,NE,40,1.0,4.0,86,0.00,,,0.00,Wunderground v.1.15,2013-03-03 23:10:00,
2013-03-03 18:16:00,26.2,22.3,29.96,NNE,26,2.0,4.0,85,0.00,,,0.00,Wunderground v.1.15,2013-03-03 23:16:00,
2013-03-03 18:21:00,26.2,22.6,29.96,North,8,2.0,6.0,86,0.00,,,0.00,Wunderground v.1.15,2013-03-03 23:21:00,
2013-03-03 18:26:00,26.1,22.5,29.96,North,1,2.0,6.0,86,0.00,,,0.00,Wunderground v.1.15,2013-03-03 23:26:00,
2013-03-03 18:32:00,25.9,22.0,29.96,NE,41,2.0,4.0,85,0.00,,,0.00,Wunderground v.1.15,2013-03-03 23:32:00,
2013-03-03 18:37:00,25.8,21.9,29.96,NNW,345,2.0,4.0,85,0.00,,,0.00,Wunderground v.1.15,2013-03-03 23:37:00,
2013-03-03 18:43:00,25.8,21.9,29.96,North,352,2.0,5.0,85,0.00,,,0.00,Wunderground v.1.15,2013-03-03 23:43:00,
2013-03-03 18:49:00,25.8,21.9,29.96,NNW,348,2.0,5.0,85,0.00,,,0.00,Wunderground v.1.15,2013-03-03 23:49:00,
2013-03-03 18:54:00,25.7,21.8,29.96,NE,41,1.0,3.0,85,0.00,,,0.00,Wunderground v.1.15,2013-03-03 23:54:00,
2013-03-03 18:59:00,25.7,21.8,29.96,NNE,20,1.0,3.0,85,0.00,,,0.00,Wunderground v.1.15,2013-03-03 23:59:00,
2013-03-03 19:05:00,25.7,21.8,29.96,NNW,336,1.0,9.0,85,0.00,,,0.00,Wunderground v.1.15,2013-03-04 00:05:00,
2013-03-03 19:10:00,25.6,21.7,29.96,WSW,252,1.0,1.0,85,0.00,,,0.00,Wunderground v.1.15,2013-03-04 00:10:00,
2013-03-03 19:15:00,25.6,21.7,29.95,WSW,248,1.0,2.0,85,0.00,,,0.00,Wunderground v.1.15,2013-03-04 00:15:00,
2013-03-03 19:20:00,25.6,21.7,29.95,NE,38,1.0,4.0,85,0.00,,,0.00,Wunderground v.1.15,2013-03-04 00:20:00,
2013-03-03 19:25:00,25.5,21.3,29.96,NE,56,2.0,4.0,84,0.00,,,0.00,Wunderground v.1.15,2013-03-04 00:25:00,
2013-03-03 19:30:00,25.4,21.5,29.96,NE,39,2.0,4.0,85,0.00,,,0.00,Wunderground v.1.15,2013-03-04 00:30:00,
2013-03-03 19:36:00,25.4,21.2,29.96,NE,51,2.0,6.0,84,0.00,,,0.00,Wunderground v.1.15,2013-03-04 00:36:00,
2013-03-03 19:41:00,25.3,21.4,29.96,NNE,15,3.0,4.0,85,0.00,,,0.00,Wunderground v.1.15,2013-03-04 00:41:00,
2013-03-03 19:46:00,25.2,21.3,29.96,WNW,295,4.0,4.0,85,0.00,,,0.00,Wunderground v.1.15,2013-03-04 00:46:00,
2013-03-03 19:51:00,25.1,21.2,29.96,North,7,3.0,3.0,85,0.00,,,0.00,Wunderground v.1.15,2013-03-04 00:51:00,
2013-03-03 19:56:00,25.1,21.2,29.96,North,5,2.0,4.0,85,0.00,,,0.00,Wunderground v.1.15,2013-03-04 00:56:00,
2013-03-03 20:01:00,25.0,20.8,29.96,North,352,2.0,9.0,84,0.00,,,0.00,Wunderground v.1.15,2013-03-04 01:01:00,
2013-03-03 20:07:00,24.9,20.8,29.96,NNE,26,3.0,9.0,84,0.00,,,0.00,Wunderground v.1.15,2013-03-04 01:07:00,
2013-03-03 20:13:00,24.8,20.7,29.96,North,349,3.0,3.0,84,0.00,,,0.00,Wunderground v.1.15,2013-03-04 01:13:00,
2013-03-03 20:19:00,24.7,20.8,29.96,ENE,60,2.0,5.0,85,0.00,,,0.00,Wunderground v.1.15,2013-03-04 01:19:00,
2013-03-03 20:25:00,24.6,20.7,29.96,NE,42,2.0,2.0,85,0.00,,,0.00,Wunderground v.1.15,2013-03-04 01:25:00,
2013-03-03 20:30:00,24.6,20.7,29.96,NE,41,2.0,2.0,85,0.00,,,0.00,Wunderground v.1.15,2013-03-04 01:30:00,
2013-03-03 20:36:00,24.5,20.6,29.96,NNE,32,2.0,3.0,85,0.00,,,0.00,Wunderground v.1.15,2013-03-04 01:36:00,
2013-03-03 20:41:00,24.4,20.5,29.96,NNW,346,1.0,3.0,85,0.00,,,0.00,Wunderground v.1.15,2013-03-04 01:41:00,
2013-03-03 20:46:00,24.4,20.5,29.97,NE,56,1.0,7.0,85,0.00,,,0.00,Wunderground v.1.15,2013-03-04 01:46:00,
2013-03-03 20:51:00,24.4,20.5,29.96,NNW,343,2.0,2.0,85,0.00,,,0.00,Wunderground v.1.15,2013-03-04 01:51:00,
2013-03-03 20:57:00,24.3,20.7,29.96,WNW,295,2.0,5.0,86,0.00,,,0.00,Wunderground v.1.15,2013-03-04 01:57:00,
2013-03-03 21:02:00,24.3,20.4,29.96,ENE,63,2.0,9.0,85,0.00,,,0.00,Wunderground v.1.15,2013-03-04 02:02:00,
2013-03-03 21:08:00,24.2,20.3,29.96,East,89,2.0,9.0,85,0.00,,,0.00,Wunderground v.1.15,2013-03-04 02:08:00,
2013-03-03 21:13:00,24.2,20.6,29.95,NNW,347,1.0,2.0,86,0.00,,,0.00,Wunderground v.1.15,2013-03-04 02:13:00,
2013-03-03 21:19:00,24.1,20.2,29.95,NNE,24,2.0,6.0,85,0.00,,,0.00,Wunderground v.1.15,2013-03-04 02:19:00,
2013-03-03 21:25:00,24.0,20.1,29.95,North,356,3.0,3.0,85,0.00,,,0.00,Wunderground v.1.15,2013-03-04 02:25:00,
2013-03-03 21:30:00,23.9,20.0,29.95,NE,56,2.0,3.0,85,0.00,,,0.00,Wunderground v.1.15,2013-03-04 02:30:00,
2013-03-03 21:35:00,23.9,20.0,29.95,NW,311,3.0,6.0,85,0.00,,,0.00,Wunderground v.1.15,2013-03-04 02:35:00,
2013-03-03 21:40:00,23.8,19.9,29.95,NE,39,3.0,3.0,85,0.00,,,0.00,Wunderground v.1.15,2013-03-04 02:40:00,
2013-03-03 21:45:00,23.8,19.7,29.95,North,1,2.0,3.0,84,0.00,,,0.00,Wunderground v.1.15,2013-03-04 02:45:00,
2013-03-03 21:51:00,23.7,19.6,29.95,North,8,3.0,7.0,84,0.00,,,0.00,Wunderground v.1.15,2013-03-04 02:51:00,
2013-03-03 21:56:00,23.6,19.5,29.95,ENE,63,3.0,7.0,84,0.00,,,0.00,Wunderground v.1.15,2013-03-04 02:56:00,
2013-03-03 22:01:00,23.6,19.5,29.95,NE,50,2.0,4.0,84,0.00,,,0.00,Wunderground v.1.15,2013-03-04 03:01:00,
2013-03-03 22:07:00,23.6,19.2,29.95,North,357,2.0,7.0,83,0.00,,,0.00,Wunderground v.1.15,2013-03-04 03:07:00,
2013-03-03 22:13:00,23.5,19.4,29.95,NW,326,2.0,5.0,84,0.00,,,0.00,Wunderground v.1.15,2013-03-04 03:13:00,
2013-03-03 22:19:00,23.4,19.3,29.95,North,4,2.0,6.0,84,0.00,,,0.00,Wunderground v.1.15,2013-03-04 03:19:00,
2013-03-03 22:24:00,23.3,19.2,29.95,West,264,3.0,4.0,84,0.00,,,0.00,Wunderground v.1.15,2013-03-04 03:24:00,
2013-03-03 22:29:00,23.3,19.2,29.94,SW,228,2.0,4.0,84,0.00,,,0.00,Wunderground v.1.15,2013-03-04 03:29:00,
2013-03-03 22:35:00,23.3,19.2,29.95,NNE,29,1.0,3.0,84,0.00,,,0.00,Wunderground v.1.15,2013-03-04 03:35:00,
2013-03-03 22:40:00,23.2,19.1,29.94,SW,220,1.0,1.0,84,0.00,,,0.00,Wunderground v.1.15,2013-03-04 03:40:00,
2013-03-03 22:45:00,23.2,19.1,29.94,NNW,340,1.0,1.0,84,0.00,,,0.00,Wunderground v.1.15,2013-03-04 03:45:00,
2013-03-03 22:51:00,23.1,19.0,29.94,NW,315,2.0,2.0,84,0.00,,,0.00,Wunderground v.1.15,2013-03-04 03:51:00,
2013-03-03 22:56:00,23.0,19.2,29.94,WSW,247,2.0,2.0,85,0.00,,,0.00,Wunderground v.1.15,2013-03-04 03:56:00,
2013-03-03 23:01:00,23.0,19.2,29.94,ENE,63,1.0,2.0,85,0.00,,,0.00,Wunderground v.1.15,2013-03-04 04:01:00,
2013-03-03 23:07:00,22.9,18.8,29.94,North,10,1.0,3.0,84,0.00,,,0.00,Wunderground v.1.15,2013-03-04 04:07:00,
2013-03-03 23:12:00,22.8,19.0,29.94,North,356,1.0,1.0,85,0.00,,,0.00,Wunderground v.1.15,2013-03-04 04:12:00,
2013-03-03 23:17:00,22.8,18.7,29.94,NE,50,1.0,5.0,84,0.00,,,0.00,Wunderground v.1.15,2013-03-04 04:17:00,
2013-03-03 23:22:00,22.7,18.9,29.94,ENE,66,1.0,2.0,85,0.00,,,0.00,Wunderground v.1.15,2013-03-04 04:22:00,
2013-03-03 23:28:00,22.7,18.9,29.94,NNW,328,1.0,3.0,85,0.00,,,0.00,Wunderground v.1.15,2013-03-04 04:28:00,
2013-03-03 23:33:00,22.7,18.9,29.94,SSE,150,1.0,2.0,85,0.00,,,0.00,Wunderground v.1.15,2013-03-04 04:33:00,
2013-03-03 23:38:00,22.6,18.8,29.94,NE,52,1.0,2.0,85,0.00,,,0.00,Wunderground v.1.15,2013-03-04 04:38:00,
2013-03-03 23:43:00,22.7,18.9,29.94,SW,214,0.0,1.0,85,0.00,,,0.00,Wunderground v.1.15,2013-03-04 04:43:00,
2013-03-03 23:49:00,22.6,18.8,29.94,NW,316,1.0,2.0,85,0.00,,,0.00,Wunderground v.1.15,2013-03-04 04:49:00,
2013-03-03 23:55:00,22.6,18.8,29.94,SSE,158,1.0,2.0,85,0.00,,,0.00,Wunderground v.1.15,2013-03-04 04:55:00,